Location: Aragüita
(10.0436°N, 67.8028°W)
Time: 13:28:07
(UTC+00:00)

ATLAS 5 CENTAUR R/B - Pass Details

Date: 14 April 2024
Orbit: 255 x 11835 km, 20.2° (Epoch: 27 May)

Event Time Altitude Azimuth Distance (km) Brightness Sun altitude
Rises 06:06:17 0° 262° (W) 15,357 7.9 -59.3°
Reaches altitude 10° 06:27:32 10° 267° (W) 11,819 7.2 -55.1°
Enters shadow 06:29:22 11° 267° (W) 11,444 7.1 -54.7°
Exits shadow 07:05:46 48° 23° (NNE) 2,218 3.8 -46.9°
Drops below altitude 10° 07:10:26 10° 61° (ENE) 2,890 5.0 -45.8°
Sets 07:12:06 0° 66° (ENE) 3,415 5.6 -45.5°
